SPACEBEE-92 (48932 NORAD) Tracking and Keplerian Element Data

This shows tracking and keplerian element data for the satellite.

Feedback or suggestion? Click here.




ElementValue
Catalog48932
NameSPACEBEE-92
Epoch Orbit1396
Epoch Day269.07958832
Epoch Year2021
RAAN36.7474
Inclination97.5197
Eccentricity0.0016418
Argument of Perigee298.192
Mean Anonmoly61.7654
Mean Motion15.14679139
Decay Rate7.802E-05
L11 48932U 21059BF 21269.07958832 .00007802 00000-0 42373-3 0 9994
L22 48932 97.5197 36.7474 0016418 298.1920 61.7654 15.14679139 13962

Live tracking and technical data element details for SPACEBEE-92 (NORAD 48932). SPACEBEE-92 can be tracked NOW for your location showing map with azimuth and elevation plus other details from your city location.

Track the satellite on the map from your city or location and see movement details for azimuth, elevation, latitude, longitude, range, height, and movement on the map or in text.







IsCatalogInMostPopularTable: catalog: 48932, numindb: 18
Update: records affected: 1



GetName: 48932 SPACEBEE-92

Hit Count: updated at: Sun, 26 Sep 2021 15:51:16 GMT